Location: *
(35.8942°N, 23.3025°E)
Time: 22:31:55
(UTC+00:00)

Cosmos 1484 Rocket - Pass Details

Date: 21 September 2021
Orbit: 504 x 558 km, 97.5° (Epoch: 22 October)

Event Time Altitude Azimuth Distance (km) Brightness Sun altitude
Rises 03:35:03 0° 353° (N) 2,625 6.3 -8.7°
Reaches altitude 10° 03:37:37 10° 335° (NNW) 1,728 5.2 -8.2°
Maximum altitude 03:40:13 18° 290° (WNW) 1,280 4.2 -7.6°
Drops below altitude 10° 03:42:48 10° 245° (WSW) 1,711 4.7 -7.1°
Enters shadow 03:43:55 - 235° (SW) 2,076 5.2 -6.9°
